When you browse on this site, cookies collect data to enhance your experience and personalize the content and advertising you see.
Visit our Privacy Policy to learn more. By continuing to use the site, you agree to this use of cookies and data.
  • In Czech Republic
  • List of Countries
  • For 7 days
  • Water Temperature
  • Satellite Maps
  • Weather Map
  • Weather Widgets
  • user-avatar
    Login

    Hourly Weather Mayrhofen

    Today, 23 February, Saturday

    Time Temperature Precipitation Wind Pressure Humidity
    00:00 -5°C° 0 mm 2 mps 624 mmHg 96%
    01:00 -6°C° 0 mm 3 mps 624 mmHg 96%
    02:00 -6°C° 0 mm 2 mps 624 mmHg 94%
    03:00 -7°C° 0 mm 2 mps 623 mmHg 92%
    04:00 -8°C° 0 mm 2 mps 623 mmHg 90%
    05:00 -8°C° 0 mm 2 mps 623 mmHg 82%
    06:00 -9°C° 0 mm 2 mps 623 mmHg 74%
    07:00 -9°C° 0 mm 2 mps 623 mmHg 75%
    08:00 -7°C° 0 mm 2 mps 624 mmHg 70%
    09:00 -5°C° 0 mm 2 mps 625 mmHg 65%
    10:00 -3°C° 0 mm 2 mps 625 mmHg 59%
    11:00 -2°C° 0 mm 3 mps 625 mmHg 62%
    12:00 -1°C° 0 mm 3 mps 625 mmHg 64%
    13:00 -1°C° 0 mm 3 mps 625 mmHg 64%
    14:00 -1°C° 0 mm 3 mps 625 mmHg 65%
    15:00 -1°C° 0 mm 2 mps 625 mmHg 66%
    16:00 -1°C° 0 mm 2 mps 625 mmHg 67%
    17:00 -3°C° 0 mm 2 mps 624 mmHg 65%
    18:00 -5°C° 0 mm 2 mps 624 mmHg 62%
    19:00 -6°C° 0 mm 2 mps 624 mmHg 60%
    20:00 -7°C° 0 mm 2 mps 624 mmHg 57%
    21:00 -7°C° 0 mm 2 mps 624 mmHg 55%
    22:00 -7°C° 0 mm 2 mps 624 mmHg 53%
    23:00 -7°C° 0 mm 2 mps 624 mmHg 52%

    Tomorrow, 24 February, Sunday

    Time Temperature Precipitation Wind Pressure Humidity
    00:00 -6°C° 0 mm 1 mps 624 mmHg 52%
    01:00 -6°C° 0 mm 1 mps 624 mmHg 51%
    02:00 -4°C° 0 mm 1 mps 624 mmHg 51%
    03:00 -4°C° 0 mm 1 mps 624 mmHg 51%
    04:00 -4°C° 0 mm 1 mps 624 mmHg 51%
    05:00 -4°C° 0 mm 1 mps 624 mmHg 51%
    06:00 -4°C° 0 mm 1 mps 624 mmHg 51%
    07:00 -6°C° 0 mm 2 mps 624 mmHg 52%
    08:00 -4°C° 0 mm 2 mps 625 mmHg 57%
    09:00 -2°C° 0 mm 2 mps 626 mmHg 62%
    10:00 +1°C° 0 mm 2 mps 626 mmHg 67%
    11:00 +2°C° 0 mm 2 mps 626 mmHg 70%
    12:00 +2°C° 0 mm 2 mps 626 mmHg 73%
    13:00 +3°C° 0 mm 2 mps 626 mmHg 77%
    14:00 +3°C° 0 mm 2 mps 626 mmHg 77%
    15:00 +2°C° 0 mm 2 mps 626 mmHg 78%
    16:00 +2°C° 0 mm 2 mps 626 mmHg 79%
    17:00 +1°C° 0 mm 2 mps 625 mmHg 79%
    18:00 -2°C° 0 mm 2 mps 625 mmHg 79%
    19:00 -4°C° 0 mm 2 mps 625 mmHg 80%
    20:00 -4°C° 0 mm 2 mps 625 mmHg 80%
    21:00 -4°C° 0 mm 2 mps 625 mmHg 80%
    22:00 -4°C° 0 mm 2 mps 625 mmHg 80%
    23:00 -4°C° 0 mm 2 mps 625 mmHg 81%

    Day after tomorrow, 25 February, Monday

    Time Temperature Precipitation Wind Pressure Humidity
    00:00 -2°C° 0 mm 1 mps 626 mmHg 82%
    01:00 -2°C° 0 mm 1 mps 626 mmHg 83%
    02:00 -2°C° 0 mm 1 mps 625 mmHg 83%
    03:00 -2°C° 0 mm 1 mps 625 mmHg 83%
    04:00 -2°C° 0 mm 1 mps 625 mmHg 83%
    05:00 -2°C° 0 mm 1 mps 625 mmHg 82%
    06:00 -2°C° 0 mm 1 mps 625 mmHg 82%
    07:00 -2°C° 0 mm 1 mps 625 mmHg 81%
    08:00 0°C° 0 mm 1 mps 625 mmHg 82%
    09:00 +2°C° 0 mm 1 mps 626 mmHg 82%
    10:00 +3°C° 0 mm 1 mps 627 mmHg 83%
    11:00 +3°C° 0 mm 2 mps 627 mmHg 84%
    12:00 +3°C° 0 mm 2 mps 627 mmHg 85%
    13:00 +4°C° 0 mm 2 mps 627 mmHg 85%
    14:00 +4°C° 0 mm 2 mps 626 mmHg 87%
    15:00 +3°C° 0 mm 2 mps 626 mmHg 88%
    16:00 +3°C° 0 mm 2 mps 626 mmHg 89%
    17:00 +2°C° 0 mm 2 mps 626 mmHg 88%
    18:00 +1°C° 0 mm 1 mps 626 mmHg 87%
    19:00 0°C° 0 mm 1 mps 625 mmHg 86%
    20:00 0°C° 0 mm 1 mps 625 mmHg 80%
    21:00 0°C° 0 mm 1 mps 625 mmHg 74%
    22:00 0°C° 0 mm 1 mps 626 mmHg 68%
    23:00 0°C° 0 mm 1 mps 626 mmHg 66%

    26 February, Tuesday

    Time Temperature Precipitation Wind Pressure Humidity
    00:00 0°C° 0 mm 1 mps 626 mmHg 64%
    01:00 -1°C° 0 mm 1 mps 626 mmHg 62%
    02:00 -1°C° 0 mm 1 mps 625 mmHg 61%
    03:00 -1°C° 0 mm 1 mps 625 mmHg 61%
    04:00 -3°C° 0 mm 2 mps 625 mmHg 60%
    05:00 -3°C° 0 mm 2 mps 625 mmHg 56%
    06:00 -3°C° 0 mm 2 mps 625 mmHg 52%
    07:00 -3°C° 0 mm 2 mps 625 mmHg 49%
    08:00 -1°C° 0 mm 2 mps 625 mmHg 51%
    09:00 +2°C° 0 mm 2 mps 626 mmHg 54%
    10:00 +5°C° 0 mm 1 mps 626 mmHg 56%
    11:00 +4°C° 0 mm 2 mps 626 mmHg 58%
    12:00 +5°C° 0 mm 2 mps 626 mmHg 60%
    13:00 +6°C° 0 mm 2 mps 626 mmHg 62%
    14:00 +5°C° 0 mm 2 mps 626 mmHg 63%
    15:00 +5°C° 0 mm 2 mps 626 mmHg 65%
    16:00 +4°C° 0 mm 2 mps 625 mmHg 66%
    17:00 +3°C° 0 mm 2 mps 625 mmHg 66%
    18:00 +1°C° 0 mm 2 mps 625 mmHg 65%
    19:00 -2°C° 0 mm 2 mps 624 mmHg 65%
    20:00 -2°C° 0 mm 2 mps 624 mmHg 60%
    21:00 -2°C° 0 mm 2 mps 625 mmHg 55%
    22:00 -2°C° 0 mm 2 mps 625 mmHg 50%
    23:00 -2°C° 0 mm 2 mps 625 mmHg 48%

    27 February, Wednesday

    Time Temperature Precipitation Wind Pressure Humidity
    00:00 -2°C° 0 mm 2 mps 624 mmHg 47%
    01:00 -2°C° 0 mm 2 mps 624 mmHg 45%
    02:00 -2°C° 0 mm 2 mps 624 mmHg 46%
    03:00 -1°C° 0 mm 2 mps 624 mmHg 47%
    04:00 -1°C° 0 mm 2 mps 624 mmHg 47%
    05:00 -1°C° 0 mm 2 mps 624 mmHg 49%
    06:00 -1°C° 0 mm 2 mps 624 mmHg 51%
    07:00 -1°C° 0 mm 2 mps 624 mmHg 54%
    08:00 +3°C° 0 mm 1 mps 624 mmHg 58%
    09:00 +4°C° 0 mm 1 mps 624 mmHg 63%
    10:00 +6°C° 0 mm 1 mps 625 mmHg 68%
    11:00 +7°C° 0 mm 1 mps 625 mmHg 67%
    12:00 +8°C° 0 mm 1 mps 625 mmHg 66%
    13:00 +9°C° 0 mm 1 mps 625 mmHg 65%
    14:00 +9°C° 0 mm 1 mps 625 mmHg 68%
    15:00 +7°C° 0 mm 0 mps 624 mmHg 70%
    16:00 +7°C° 0 mm 0 mps 624 mmHg 72%
    17:00 +6°C° 0 mm 1 mps 624 mmHg 71%
    18:00 +5°C° 0 mm 1 mps 623 mmHg 70%
    19:00 +3°C° 0 mm 1 mps 622 mmHg 69%
    20:00 +3°C° 0 mm 1 mps 622 mmHg 67%
    21:00 +3°C° 0 mm 1 mps 622 mmHg 65%
    22:00 +3°C° 0 mm 1 mps 622 mmHg 63%
    23:00 +3°C° 0 mm 1 mps 622 mmHg 61%

    28 February, Thursday

    Time Temperature Precipitation Wind Pressure Humidity
    00:00 +2°C° 0 mm 1 mps 622 mmHg 60%
    01:00 +2°C° 0 mm 1 mps 622 mmHg 58%
    02:00 +2°C° 0 mm 1 mps 622 mmHg 58%
    03:00 +1°C° 0 mm 2 mps 621 mmHg 59%
    04:00 +1°C° 0 mm 2 mps 621 mmHg 59%
    05:00 +1°C° 0 mm 2 mps 621 mmHg 60%
    06:00 -1°C° 0 mm 2 mps 621 mmHg 60%
    07:00 -1°C° 0 mm 2 mps 621 mmHg 61%
    08:00 +2°C° 0 mm 2 mps 621 mmHg 61%
    09:00 +3°C° 0 mm 2 mps 622 mmHg 61%
    10:00 +5°C° 0 mm 2 mps 622 mmHg 60%
    11:00 +6°C° 0 mm 2 mps 622 mmHg 59%
    12:00 +6°C° 0 mm 2 mps 622 mmHg 59%
    13:00 +7°C° 0 mm 2 mps 622 mmHg 58%
    14:00 +7°C° 0 mm 2 mps 621 mmHg 58%
    15:00 +6°C° 0 mm 2 mps 621 mmHg 59%
    16:00 +6°C° 0 mm 2 mps 620 mmHg 60%
    17:00 +4°C° 0 mm 2 mps 620 mmHg 66%
    18:00 +2°C° 0 mm 2 mps 620 mmHg 71%
    19:00 -1°C° 0 mm 2 mps 619 mmHg 77%
    20:00 -1°C° 0 mm 2 mps 619 mmHg 79%
    21:00 -2°C° 0 mm 2 mps 619 mmHg 81%
    22:00 -2°C° 0 mm 2 mps 620 mmHg 83%
    23:00 -2°C° 0 mm 2 mps 620 mmHg 85%
    Show more